Location: Powder Track
(41.8531°N, 72.3584°W)
Time: 18:41:20
(UTC+00:00)

Transit 4A - Pass Details

Date: 08 August 2021
Orbit: 871 x 974 km, 66.8° (Epoch: 19 September)

Event Time Altitude Azimuth Distance (km) Brightness Sun altitude
Rises 10:13:18 0° 338° (NNW) 3,474 10.9 3.1°
Reaches altitude 10° 10:16:32 10° 356° (N) 2,542 10.4 3.7°
Maximum altitude 10:20:42 19° 41° (NE) 1,965 10.7 4.4°
Drops below altitude 10° 10:24:53 10° 86° (E) 2,573 12.3 5.2°
Sets 10:28:10 0° 104° (ESE) 3,530 12.1 5.7°
